Wind_Speed
11 10 11 11 11 10 8 8 7 7 6 6 7 7 7 7 7 7 8 8 8 7 8 8 7 7 7 8 8 8 10 10 10 10 10 10 10 9 8 7 7 7
13 12 12 11 11 10 9 8 8 8 7 7 7 7 6 6 6 7 7 6 6 7 7 7 7 7 7 7 8 8 9 10 11 11 11 11 11 10 9 8 7 7
13 13 13 12 11 10 9 9 9 10 9 8 7 6 6 7 7 7 7 6 6 6 6 6 7 7 7 8 8 8 8 9 10 11 12 12 12 10 9 8 8 8
13 13 14 14 13 12 11 11 11 11 10 9 8 7 7 8 7 7 7 7 6 6 6 5 6 7 7 8 8 8 8 9 9 10 11 12 12 11 11 9 9 9
14 14 15 16 16 15 14 13 12 12 11 10 10 9 9 9 8 8 7 7 7 7 6 6 6 6 6 7 7 8 8 9 9 10 10 11 12 12 12 11 10 10
15 15 16 17 18 18 16 15 13 13 13 12 12 11 10 10 9 9 8 7 8 7 7 7 6 6 6 6 7 7 8 8 8 9 10 11 11 11 11 11 11 11
16 17 17 18 19 19 18 17 16 15 14 14 13 12 12 11 10 10 10 9 8 8 8 8 8 7 6 6 6 6 7 7 8 8 9 10 10 10 10 11 11 11
17 18 18 19 19 20 20 19 18 17 16 15 15 14 13 13 12 12 11 11 10 10 10 9 9 9 8 7 6 6 7 7 7 8 9 9 9 9 10 10 10 10
19 19 19 19 20 20 21 21 20 19 18 17 16 15 15 14 14 14 13 12 11 11 10 10 9 9 9 9 8 8 7 7 7 8 8 9 9 9 9 9 9 9
20 21 21 21 20 20 20 21 21 20 20 19 18 17 17 16 16 15 15 14 13 12 11 10 10 10 10 10 10 9 9 9 8 8 8 9 9 9 9 9 9 9
21 21 21 21 21 20 20 20 21 22 22 21 20 19 19 18 18 18 17 16 14 13 12 11 11 11 11 10 11 11 11 11 10 9 9 9 10 10 10 9 9 9
23 23 23 22 22 22 21 21 22 23 23 23 23 22 21 20 20 20 19 17 16 15 14 14 13 13 12 12 12 12 12 12 12 11 11 11 11 11 11 11 10 10
24 24 25 25 24 24 23 23 24 23 24 24 24 24 24 23 22 21 20 19 18 17 17 16 15 15 14 13 13 13 13 12 12 12 11 11 11 11 12 12 12 11
25 25 26 27 27 26 26 25 25 25 24 24 25 25 25 24 24 23 21 20 20 19 18 18 18 17 15 15 14 14 13 13 13 12 12 12 11 11 12 12 12 12
25 24 25 27 28 28 28 28 27 26 25 25 25 26 25 25 25 24 23 23 22 22 21 20 20 19 17 16 15 15 15 14 14 14 14 14 13 13 13 13 13 13
25 24 25 26 27 28 29 30 30 29 27 26 27 27 27 26 26 25 24 24 24 23 23 23 22 20 19 18 17 17 17 17 17 17 17 17 16 16 16 15 15 15
23 24 25 25 26 28 30 31 32 32 30 29 29 29 29 28 27 26 25 24 23 23 23 23 22 21 19 18 18 19 19 19 19 19 19 19 19 18 18 17 17 17
22 23 25 25 26 28 30 31 32 34 35 34 32 30 30 29 28 27 25 24 23 22 23 23 22 21 20 19 19 19 20 20 21 21 21 21 21 21 20 19 19 19
21 22 24 24 25 28 30 31 32 36 39 38 34 30 29 28 26 26 25 24 22 21 21 22 21 20 20 21 21 20 20 21 21 21 21 22 22 22 22 21 21 21
20 23 24 25 25 27 29 29 31 36 39 38 33 28 27 26 25 24 24 23 23 22 22 21 21 20 21 21 21 20 21 21 22 22 22 22 22 22 22 22 22 22
19 22 24 25 25 25 24 24 26 30 33 33 29 26 26 27 24 22 22 23 23 23 23 22 22 22 22 22 21 20 20 21 22 22 22 22 22 21 22 22 22 22
16 18 20 21 22 22 22 22 23 26 28 29 26 24 27 28 25 22 22 23 23 24 24 24 24 24 24 24 22 21 22 22 22 22 22 22 21 21 21 21 21 22
16 18 18 19 21 21 22 22 22 24 26 26 26 26 28 28 25 22 22 23 24 25 26 26 27 27 27 26 25 24 25 25 25 25 24 24 23 22 22 23 23 23
13 15 17 18 20 21 22 23 24 25 26 26 27 27 26 24 22 21 22 24 25 26 27 27 27 28 29 29 28 28 28 28 28 28 28 27 26 25 25 26 25 25
8 9 11 13 15 17 19 21 23 25 26 27 26 25 23 22 22 23 24 25 26 27 28 28 28 28 29 29 29 30 30 31 31 30 29 28 28 28 28 28 27 27
7 7 8 9 10 11 13 15 17 19 22 23 24 24 24 24 25 26 26 27 27 28 29 30 30 29 30 30 30 31 31 32 32 32 31 29 29 29 29 30 29 28
Wind_Direction
192 189 185 184 187 194 196 190 194 203 203 204 201 193 188 180 175 178 179 179 178 180 184 189 196 202 205 205 208 212 214 215 214 213 214 218 221 220 222 224 223 224
195 192 192 193 192 194 199 197 196 202 204 204 203 200 198 191 185 187 187 185 184 184 188 195 200 205 211 213 213 214 214 215 217 217 219 222 225 224 224 226 230 233
199 195 193 196 197 196 201 202 200 202 203 203 200 200 202 200 197 195 195 195 195 195 197 201 203 202 207 213 213 214 215 215 217 218 221 224 228 231 230 229 233 237
202 199 197 197 199 199 201 203 202 201 203 203 200 199 203 204 203 201 201 202 204 206 204 206 210 207 208 212 212 216 218 219 218 216 219 223 227 233 236 236 237 239
204 202 202 201 201 202 202 202 203 201 201 203 202 201 204 205 205 205 207 209 208 209 208 209 213 211 210 211 212 216 218 219 220 216 218 222 225 232 238 241 243 245
206 203 204 205 204 205 203 201 202 201 200 203 204 204 204 204 206 204 206 210 211 211 210 211 217 215 213 212 211 215 216 217 218 218 221 225 228 233 238 242 246 249
207 205 205 207 208 209 207 204 204 202 201 202 204 205 205 205 207 205 204 206 210 214 213 214 219 218 215 213 212 215 217 217 217 216 220 223 226 230 235 239 243 247
211 209 207 208 209 211 211 210 209 207 206 205 203 204 205 205 206 207 207 205 205 211 214 215 218 220 219 218 218 218 219 220 218 214 216 217 219 225 231 236 241 243
215 213 212 212 211 211 212 213 214 214 213 211 208 206 205 204 205 207 209 208 204 205 209 212 217 221 224 224 224 227 227 229 228 223 222 220 219 225 229 233 237 240
221 219 217 216 214 213 212 212 215 218 219 218 215 213 209 206 205 207 209 210 207 206 208 212 218 221 224 225 225 227 229 233 236 236 237 235 232 232 234 234 235 236
229 228 226 222 218 216 214 213 215 217 220 221 221 220 216 213 210 208 209 210 209 210 211 215 220 223 225 226 226 227 228 232 236 239 243 247 247 247 247 247 244 240
231 233 233 230 225 221 216 215 216 217 219 221 222 223 223 220 217 213 211 212 212 214 216 218 221 225 228 229 229 230 230 233 237 240 243 247 250 253 255 256 254 251
231 233 236 235 233 230 224 219 217 218 220 221 222 224 225 225 224 221 217 216 216 219 221 223 225 226 228 231 232 233 233 235 239 242 244 246 248 251 254 256 257 256
231 233 236 236 235 234 232 228 223 219 220 222 224 225 226 226 226 226 224 223 222 223 224 227 229 230 230 230 233 235 235 236 239 243 246 247 247 249 252 255 257 257
227 232 238 239 237 235 235 235 232 225 221 221 225 227 228 228 228 228 228 228 228 227 227 228 230 231 232 231 231 233 236 238 238 241 243 245 247 249 251 254 256 259
225 231 238 240 240 237 236 237 236 233 226 222 224 227 228 229 229 230 230 230 232 233 233 233 232 231 231 231 231 231 233 236 238 240 242 243 245 247 249 253 256 258
224 229 234 236 236 236 236 236 236 235 230 225 222 223 226 227 228 230 231 231 233 235 237 239 237 235 233 234 235 234 234 235 236 238 241 243 244 245 246 248 251 254
226 228 232 234 234 234 235 237 238 236 234 231 225 220 222 225 225 228 230 231 232 233 236 239 240 240 238 237 239 241 243 243 241 240 241 242 244 245 245 245 246 247
228 230 234 237 239 240 239 239 238 236 235 235 229 220 217 221 224 226 228 230 232 233 236 239 241 242 242 240 240 242 246 249 251 250 250 249 248 248 248 247 246 246
229 230 232 236 240 243 243 240 237 236 235 234 230 223 219 220 221 224 228 231 234 238 240 242 243 242 241 241 240 240 243 247 251 254 257 259 259 259 257 255 254 255
228 228 229 232 234 236 240 240 240 241 239 235 232 231 232 229 223 223 230 233 236 240 243 243 244 242 240 240 240 239 240 243 247 250 254 259 262 266 268 266 264 263
224 227 229 233 234 235 236 238 241 245 246 241 235 233 235 237 231 227 232 238 239 242 244 245 246 245 243 241 239 239 240 242 246 249 251 254 256 259 263 265 265 264
229 231 232 235 240 242 241 240 240 245 248 246 241 236 235 238 236 231 233 238 242 245 248 248 249 249 248 246 244 242 241 242 245 249 251 253 254 253 253 253 255 257
235 236 236 237 240 242 243 243 242 243 245 245 244 242 241 242 243 239 237 238 242 246 249 250 251 251 250 250 249 248 247 246 246 248 250 252 253 252 250 249 249 250
240 241 242 241 241 241 242 244 245 247 250 252 253 253 253 252 251 247 243 242 243 246 248 250 250 250 250 250 251 252 252 251 250 250 250 251 252 251 250 249 249 249
243 246 250 251 253 252 251 252 254 256 259 262 263 263 262 260 257 254 251 250 248 248 250 249 249 249 250 250 250 252 253 253 254 254 254 254 254 254 253 252 251 251
Height
3239 3240 3241 3242 3243 3244 3245 3246 3246 3247 3248 3249 3249 3249 3250 3250 3251 3251 3252 3253 3253 3254 3255 3255 3256 3257 3257 3258 3259 3259 3260 3261 3262 3263 3264 3264 3265 3266 3267 3267 3267 3267
3238 3239 3240 3241 3242 3243 3244 3245 3246 3247 3248 3249 3249 3250 3250 3251 3251 3252 3253 3253 3253 3254 3255 3255 3256 3257 3257 3258 3259 3259 3260 3261 3261 3262 3264 3264 3265 3266 3266 3267 3267 3267
3237 3238 3239 3241 3242 3243 3244 3245 3246 3247 3248 3248 3249 3250 3251 3252 3252 3252 3253 3253 3254 3255 3255 3256 3256 3257 3257 3258 3259 3259 3260 3261 3261 3262 3263 3264 3265 3266 3266 3266 3267 3267
3236 3237 3238 3239 3241 3242 3243 3244 3245 3246 3247 3248 3249 3250 3251 3252 3252 3253 3253 3254 3254 3255 3255 3256 3257 3257 3257 3258 3259 3259 3260 3260 3261 3262 3263 3264 3264 3265 3265 3266 3266 3267
3235 3236 3237 3238 3239 3240 3242 3243 3244 3245 3246 3248 3249 3250 3250 3251 3252 3253 3253 3254 3255 3255 3256 3256 3257 3257 3258 3258 3259 3259 3260 3260 3261 3261 3262 3263 3264 3264 3264 3265 3265 3266
3233 3234 3235 3236 3237 3239 3240 3242 3243 3244 3245 3247 3248 3249 3250 3251 3252 3252 3253 3254 3254 3255 3255 3256 3257 3257 3257 3258 3258 3259 3259 3260 3260 3261 3261 3262 3262 3263 3264 3264 3265 3265
3232 3233 3234 3235 3236 3237 3239 3240 3241 3243 3244 3245 3246 3248 3249 3250 3251 3251 3252 3253 3253 3254 3255 3255 3256 3256 3257 3257 3258 3258 3259 3259 3259 3260 3260 3261 3261 3262 3262 3263 3263 3264
3231 3232 3232 3233 3234 3235 3237 3239 3240 3241 3243 3244 3245 3246 3247 3249 3250 3250 3251 3252 3253 3253 3254 3255 3255 3256 3256 3257 3257 3258 3258 3259 3259 3259 3260 3260 3260 3261 3261 3262 3262 3263
3230 3230 3231 3232 3233 3234 3235 3237 3239 3240 3241 3242 3244 3245 3246 3247 3248 3249 3250 3251 3252 3252 3253 3254 3254 3255 3255 3256 3256 3257 3257 3258 3258 3259 3259 3259 3260 3260 3260 3261 3261 3261
3229 3230 3230 3231 3232 3233 3234 3235 3237 3238 3240 3241 3242 3243 3244 3245 3246 3247 3248 3249 3250 3251 3252 3253 3253 3254 3254 3255 3255 3256 3256 3257 3257 3258 3258 3259 3259 3259 3259 3260 3260 3260
3228 3229 3230 3230 3231 3231 3232 3234 3235 3236 3238 3239 3241 3242 3243 3244 3244 3245 3246 3247 3249 3250 3250 3251 3252 3252 3253 3253 3254 3254 3255 3255 3256 3256 3257 3258 3258 3258 3258 3259 3259 3259
3225 3227 3229 3229 3230 3230 3231 3232 3233 3234 3235 3237 3239 3240 3242 3242 3243 3243 3244 3245 3247 3248 3248 3249 3250 3250 3251 3252 3252 3253 3253 3254 3254 3255 3256 3256 3257 3257 3257 3257 3258 3258
3223 3225 3227 3228 3229 3230 3231 3231 3231 3232 3233 3235 3237 3238 3240 3241 3242 3242 3243 3244 3245 3245 3246 3247 3248 3249 3249 3250 3250 3251 3252 3252 3253 3253 3254 3255 3255 3255 3255 3256 3256 3257
3221 3223 3224 3226 3227 3229 3230 3230 3230 3231 3232 3233 3235 3236 3238 3239 3240 3241 3242 3242 3243 3243 3244 3245 3246 3247 3247 3248 3249 3249 3250 3250 3251 3251 3252 3253 3253 3253 3254 3254 3254 3255
3218 3220 3221 3223 3224 3226 3228 3229 3230 3230 3231 3232 3233 3235 3236 3237 3238 3239 3240 3241 3241 3241 3242 3242 3243 3244 3245 3246 3247 3247 3248 3248 3249 3249 3250 3250 3251 3251 3252 3252 3252 3253
3213 3216 3218 3220 3222 3224 3225 3227 3229 3230 3230 3230 3231 3233 3234 3235 3236 3237 3237 3238 3239 3240 3240 3240 3241 3242 3243 3244 3245 3245 3245 3246 3246 3247 3247 3248 3248 3249 3249 3250 3250 3251
3209 3211 3214 3216 3218 3220 3222 3224 3226 3227 3228 3229 3230 3231 3232 3233 3233 3234 3235 3236 3237 3238 3238 3239 3239 3240 3241 3242 3242 3243 3243 3243 3244 3244 3245 3245 3245 3246 3246 3247 3248 3248
3206 3208 3211 3213 3214 3216 3218 3220 3223 3225 3227 3228 3228 3228 3229 3230 3230 3230 3232 3233 3234 3235 3236 3237 3238 3239 3239 3240 3240 3241 3241 3241 3242 3242 3242 3242 3242 3243 3244 3244 3245 3245
3205 3207 3210 3212 3213 3214 3216 3219 3221 3223 3225 3227 3226 3224 3224 3225 3227 3227 3228 3230 3231 3232 3233 3235 3236 3237 3237 3238 3238 3238 3239 3239 3240 3240 3240 3240 3240 3241 3241 3241 3242 3243
3204 3206 3209 3210 3212 3213 3215 3218 3220 3221 3223 3224 3223 3220 3219 3220 3221 3224 3225 3227 3228 3230 3231 3232 3233 3234 3235 3235 3235 3236 3236 3236 3237 3237 3238 3238 3239 3239 3239 3240 3240 3240
3203 3205 3207 3208 3210 3211 3213 3216 3218 3218 3219 3220 3219 3218 3218 3217 3216 3219 3222 3223 3225 3226 3227 3229 3230 3231 3232 3232 3233 3233 3233 3233 3234 3234 3235 3235 3236 3237 3237 3238 3238 3238
3202 3203 3205 3206 3207 3208 3209 3212 3215 3216 3216 3216 3215 3215 3216 3216 3214 3214 3217 3219 3221 3222 3224 3225 3226 3227 3228 3229 3230 3230 3230 3230 3231 3231 3232 3232 3233 3234 3234 3235 3235 3235
3202 3203 3203 3204 3205 3205 3206 3207 3210 3212 3213 3214 3214 3214 3214 3214 3211 3210 3212 3215 3217 3218 3219 3220 3221 3223 3224 3225 3226 3226 3226 3227 3227 3227 3228 3229 3230 3230 3231 3231 3231 3232
3200 3201 3202 3203 3203 3204 3204 3205 3207 3209 3210 3212 3212 3212 3210 3209 3208 3207 3209 3211 3213 3214 3215 3216 3217 3218 3219 3220 3221 3222 3222 3223 3223 3223 3224 3225 3226 3226 3227 3227 3228 3228
3198 3199 3200 3201 3201 3202 3203 3204 3204 3205 3206 3206 3207 3206 3205 3204 3205 3206 3207 3208 3210 3210 3211 3211 3212 3213 3214 3215 3216 3217 3218 3218 3219 3220 3220 3221 3221 3222 3222 3223 3224 3225
3197 3198 3198 3199 3199 3200 3200 3201 3201 3202 3201 3201 3201 3201 3201 3202 3203 3204 3205 3206 3206 3207 3207 3207 3207 3208 3209 3210 3211 3212 3212 3213 3214 3215 3216 3217 3217 3217 3218 3219 3220 3221